Regional Weather Roundup
Issued by NWS State College, PA

Home | Current Version | Previous Version | Text Only | Print | Product List | Glossary Off
Versions: 1 2 3 4 5 6 7 8 9 10 11 12 13 14 15 16 17 18 19 20 21 22 23 24 25 26 27 28 29 30 31 32 33 34 35 36 37 38 39 40 41 42 43 44 45 46 47 48 49 50

000
ASUS41 KCTP 251603
RWRCTP

REGIONAL WEATHER ROUNDUP
NATIONAL WEATHER SERVICE STATE COLLEGE PA
1200 PM EDT WED APR 25 2018

Note: "fair" indicates few or no clouds below 12,000 feet with no
significant weather and/or obstructions to visibility.

* = STATION THAT DOES NOT REPORT PRECIPITATION /E.G. RAIN...SNOW...ETC/
    THUNDER OR FOG.

PAZ002>004-007>009-013>016-020>023-029>032-251700-
WESTERN PENNSYLVANIA

CITY           SKY/WX    TMP DP  RH WIND       PRES   REMARKS
ERIE           LGT RAIN  52  49  89 W3        29.84F FOG
MEADVILLE      LGT RAIN  51  51 100 W6        29.84S FOG
FRANKLIN*      LGT RAIN  52  50  93 W6        29.84S FOG
NEW CASTLE     LGT RAIN  53  53 100 SW3       29.86S FOG
BEAVER COUNTY  DRIZZLE   52  50  93 W6        29.85S
BUTLER*        CLOUDY    55  51  86 W7        29.83F
PITTSBURGH INT CLOUDY    57  50  77 NW10      29.83S
PITTSBURGH     CLOUDY    57  51  80 N6        29.82S
INDIANA*       CLOUDY    57  50  77 W5        29.85F
LATROBE        PTSUNNY   57  50  77 VRB3      29.83S
WASHINGTON CO* CLOUDY    58  50  75 W10       29.85F
$$

PAZ004>006-010>012-017>019-024>028-033>037-041-042-045-046-049>053-251700-
CENTRAL PENNSYLVANIA

CITY           SKY/WX    TMP DP  RH WIND       PRES   REMARKS
BRADFORD       CLOUDY    53  48  83 CALM      29.81F
DUBOIS         CLOUDY    52  48  86 CALM      29.80F
CLEARFIELD     CLOUDY    53  50  89 CALM      29.81F
JOHNSTOWN      CLOUDY    53  50  89 W7        29.80F
ALTOONA        CLOUDY    57  50  77 CALM      29.81S
STATE COLLEGE  CLOUDY    54  52  94 CALM      29.81F FOG
WILLIAMSPORT   CLOUDY    55  53  93 CALM      29.79F FOG
SELINSGROVE    CLOUDY    57  53  86 N5        29.80F
FT INDIANTOWN  CLOUDY    57  55  94 N5        29.79F FOG
CAPITAL CITY   CLOUDY    60  55  83 NE3       29.78F
HARRISBURG     LGT RAIN  58  56  93 N5        29.77F FOG
YORK           CLOUDY    58  57  97 N7        29.77F
$$

PAZ038>040-043-044-047-048-054-055-060>062-067>071-251700-
EASTERN PENNSYLVANIA

CITY           SKY/WX    TMP DP  RH WIND       PRES   REMARKS
SCRANTON       CLOUDY    55  54  96 NE8       29.80F
MOUNT POCONO   LGT RAIN  52  52 100 E12       29.80F FOG
ALLENTOWN      CLOUDY    59  55  87 NE9       29.78F FOG
QUAKERTOWN*    CLOUDY    57  57 100 NE5       29.78F FOG
READING        CLOUDY    59  59 100 NE5       29.77F FOG
LANCASTER      CLOUDY    60  58  92 NE8       29.76F FOG
COATESVILLE    CLOUDY    59  59 100 E3        29.77F FOG
POTTSTOWN      LGT RAIN  58  58 100 E8        29.78F FOG
BLUE BELL      CLOUDY    57  57 100 NE6       29.77F
DOYLESTOWN     CLOUDY    58  57  97 CALM      29.77F FOG
WILLOW GROVE   NOT AVBL
NORTH PHILA    LGT RAIN  62  59  90 E8        29.77F FOG
PHILADELPHIA   CLOUDY    60  59  96 E10       29.75F FOG
$$



USA.gov is the U.S. government's official web portal to all federal, state and local government web resources and services.